SCP
0 0 0 0 0 0 0 0 0 0 0 0 0 0 0 0 0 0 0 0 0 -0 0 0 0 0 0 0 0 0 0 0 0 0 0 0 0 0 0 0 0 0 0 0
0 0 0 0 0 0 0 0 0 0 0 0 0 0 0 0 0 0 0 0 0 -0 0 0 0 0 0 0 0 0 0 0 0 0 0 0 0 0 0 0 0 0 0 0
0 0 0 0 0 0 0 0 0 0 0 0 0 0 0 0 0 0 0 0 0 0 0 0 0 0 0 0 0 0 0 0 0 0 0 0 0 0 0 0 0 0 0 0
0 0 0 0 0 0 0 0 0 0 0 0 0 0 0 0 0 0 0 0 0 0 0 0 0 0 0 0 0 0 0 0 0 0 0 0 0 0 0 0 0 0 0 0
0 0 0 0 0 0 0 0 0 0 0 0 0 0 0 0 0 0 0 0 0 0 0 0 0 0 0 0 0 0 0 0 0 0 0 0 0 0 0 0 0 0 0 0
0 0 0 0 0 0 0 0 0 0 0 0 0 0 0 0 0 -0 -0 0 0 0 0 0 0 0 0 0 0 0 0 0 0 0 0 0 0 0 0 0 0 0 0 0
0 0 0 0 0 0 0 0 0 0 0 0 0 0 0 0 0 -0 -0 0 0 0 0 0 0 0 0 0 0 0 0 0 0 0 0 0 0 0 0 0 0 0 0 0
0 0 0 0 0 0 0 0 0 0 0 0 0 0 0 0 0 0 0 0 0 0 0 0 0 0 0 0 0 0 0 0 0 0 0 0 0 0 0 0 0 0 0 0
0 0 0 0 0 0 0 0 0 0 0 0 0 0 0 0 0 0 0 0 0 0 0 0 0 0 0 0 0 0 0 0 0 0 0 0 0 0 0 0 0 0 0 0
0 0 0 0 0 0 0 0 0 0 0 0 0 0 0 0 0 0 0 0 0 0 0 0 0 0 0 0 0 0 0 0 0 0 0 0 0 0 0 0 0 0 0 0
0 0 0 0 0 0 0 0 0 0 0 0 0 0 0 0 0 0 0 0 0 0 0 0 0 0 0 0 0 0 0 0 0 0 0 0 0 0 0 0 0 0 0 0
0 0 0 0 0 0 0 0 0 0 0 0 0 0 0 0 0 0 0 -0 -0 0 0 0 0 0 0 0 0 0 0 0 0 0 0 0 0 0 0 0 0 0 0 0
0 0 0 0 0 0 0 0 0 0 0 0 0 0 0 0 0 0 -0 -0 -0 -0 0 0 0 0 0 0 0 0 0 0 0 0 0 0 0 0 0 0 0 0 0 0
0 0 0 0 0 0 0 0 0 0 0 0 0 0 0 0 0 0 -0 -0 -0 -0 0 0 0 0 0 0 0 0 0 0 0 0 0 0 0 0 0 0 0 0 0 0
0 0 0 0 0 0 0 0 0 0 0 0 0 0 0 0 0 0 0 0 0 0 0 0 0 0 0 0 0 0 0 0 0 0 0 0 0 0 0 0 0 0 0 0
0 0 0 0 0 0 0 0 0 0 0 0 0 0 0 0 0 0 0 0 0 0 0 0 0 0 0 0 0 0 0 0 0 0 0 0 0 0 0 0 0 0 0 0
0 0 0 0 0 0 0 0 0 0 0 0 0 0 0 0 0 0 0 0 0 0 0 0 0 0 0 0 0 0 0 0 0 0 0 0 0 0 0 0 0 0 0 0
0 0 0 0 0 0 0 0 0 0 0 0 0 0 0 0 0 0 0 0 0 0 0 0 0 0 0 0 0 0 0 0 0 0 0 0 0 0 0 0 0 0 0 0
0 0 0 0 0 0 0 0 0 0 0 0 0 0 0 0 0 0 0 0 0 0 0 0 0 0 0 0 0 0 0 0 0 0 0 0 0 0 0 0 0 0 0 0
0 0 0 0 0 0 0 0 0 0 0 0 0 0 0 0 0 0 0 0 0 0 0 0 0 0 0 0 0 0 0 0 0 0 0 0 0 0 0 0 0 0 0 0
0 0 0 0 0 0 0 0 0 0 0 0 0 0 0 0 0 0 0 0 0 0 0 0 0 0 0 0 0 0 0 0 0 0 0 0 0 0 0 0 0 0 0 0
0 0 0 0 0 0 0 0 0 0 0 0 0 0 0 0 0 0 0 0 0 0 0 0 0 0 0 0 0 0 0 0 0 0 0 0 0 0 0 0 0 0 0 0
0 0 0 0 0 0 0 0 0 0 0 0 0 0 0 0 0 0 0 0 0 0 0 0 0 0 0 0 0 0 0 0 0 0 0 0 0 0 0 0 0 0 0 0
0 0 0 0 0 0 0 0 0 0 0 0 0 0 0 0 0 0 0 0 0 0 0 0 0 0 0 0 0 0 0 0 0 0 0 0 0 0 0 0 0 0 0 0
0 0 0 0 0 0 0 0 0 0 0 0 0 0 0 0 0 0 0 0 0 0 0 0 0 0 0 0 0 0 0 0 0 0 0 0 0 0 0 0 -0 0 0 0
0 0 0 0 0 0 0 0 0 0 0 0 0 0 0 0 0 0 0 0 0 0 0 0 0 0 0 0 0 0 0 0 0 0 0 0 0 0 0 0 0 0 0 0
0 0 0 0 0 0 0 0 0 0 0 0 0 0 0 0 0 0 0 0 0 0 0 0 0 0 0 0 0 0 0 0 0 0 0 0 0 0 0 0 0 0 0 0
Wind_Speed
9 8 7 8 10 11 12 12 10 11 12 11 7 4 3 3 3 3 3 3 3 2 1 1 1 1 1 1 2 2 2 2 2 2 2 1 1 1 1 1 0 0 0 1
7 8 8 11 13 13 14 13 14 14 15 9 5 2 1 2 3 4 3 2 2 2 2 1 1 0 1 1 2 2 2 2 2 3 2 2 1 1 1 1 1 1 0 0
6 4 5 12 12 13 11 10 10 13 12 4 4 3 3 3 3 3 3 2 2 2 2 1 1 1 0 1 2 2 2 2 2 2 2 3 2 1 1 1 1 1 1 1
3 2 11 9 4 8 10 10 9 8 5 4 4 2 1 1 2 2 1 2 2 2 1 1 1 0 0 1 1 1 2 2 2 2 2 3 2 2 1 1 1 1 1 1
4 6 11 8 4 4 6 8 6 7 6 3 1 1 1 0 1 1 2 1 2 2 2 1 1 1 0 0 1 1 2 2 2 2 2 2 3 2 2 1 1 1 1 1
5 6 9 6 2 1 2 7 3 3 4 3 1 3 3 0 1 1 1 2 2 2 2 1 1 1 1 1 1 1 2 2 2 2 2 2 2 3 2 1 1 1 1 1
9 9 10 3 2 3 5 6 1 2 2 2 4 4 1 1 1 1 2 2 2 2 1 1 1 1 2 2 2 2 2 2 2 2 2 2 2 2 1 1 1 1 1 1
7 9 10 2 4 5 4 1 1 1 1 1 2 1 0 1 1 1 1 1 2 1 1 1 1 1 2 2 2 1 1 1 2 2 2 2 2 2 1 1 1 1 1 2
8 8 1 4 3 2 1 1 1 1 2 1 2 2 1 1 1 1 1 1 1 1 1 1 1 1 2 2 1 1 1 2 2 2 2 2 2 2 1 1 1 1 1 2
4 5 3 3 2 1 0 1 2 2 2 2 3 2 2 1 1 1 1 1 1 1 1 2 1 1 1 1 1 1 1 2 2 2 2 2 2 2 2 2 2 2 2 2
6 5 3 3 3 2 1 2 2 2 2 2 2 2 2 2 2 2 1 1 1 2 3 3 1 2 2 1 1 1 2 2 3 2 2 2 2 2 2 2 3 3 3 3
8 4 4 3 1 0 0 2 2 2 3 3 2 2 2 2 2 2 2 1 1 2 3 3 2 2 2 2 2 2 3 3 2 2 2 2 2 3 5 5 6 7 6 5
5 3 2 2 1 1 0 2 2 2 3 3 2 1 2 2 2 2 2 2 3 4 4 3 3 3 3 2 2 3 4 4 3 3 3 3 2 3 3 4 5 6 6 6
1 0 2 1 1 1 0 1 1 2 2 2 2 1 1 2 2 3 3 3 3 3 3 3 3 5 4 3 3 3 4 4 3 3 3 3 3 3 3 3 3 3 4 5
1 1 2 0 1 1 1 1 1 2 2 2 1 1 2 2 3 4 4 3 2 3 3 3 4 5 3 3 3 4 4 3 3 3 3 3 3 3 3 3 3 3 3 3
1 1 1 1 1 1 1 1 1 3 3 3 3 3 3 3 3 4 3 2 3 4 4 4 5 5 3 3 3 3 3 4 3 3 3 3 3 3 3 3 3 3 3 3
2 2 2 3 3 3 2 2 3 3 3 4 4 4 3 2 3 3 3 3 3 5 5 5 5 4 3 3 4 3 3 3 3 3 3 3 3 3 3 3 3 3 4 4
3 3 3 3 3 3 3 3 3 3 3 4 4 3 3 3 4 4 4 3 3 4 4 4 4 3 3 3 3 3 3 3 3 3 3 3 3 3 3 3 4 4 3 3
1 1 1 1 2 2 2 3 3 3 3 3 3 3 4 4 4 4 3 2 3 5 4 3 4 2 2 3 3 2 3 3 3 3 3 3 3 3 3 3 4 4 3 3
1 1 1 1 1 2 2 2 2 2 3 2 2 3 3 3 3 3 2 3 4 4 3 3 2 2 2 3 3 2 2 3 3 3 3 3 3 3 3 3 4 4 3 4
1 1 1 1 2 2 2 2 2 3 3 2 2 3 4 4 3 2 2 4 3 2 2 2 2 2 2 2 2 2 2 3 3 3 3 3 3 3 3 3 4 4 4 4
2 1 2 2 2 2 2 1 2 2 2 2 2 3 3 3 3 3 3 3 3 2 2 2 2 2 2 2 2 2 2 3 3 3 3 3 3 3 3 4 4 4 4 4
2 2 2 2 2 2 2 2 2 2 2 3 3 3 3 3 3 2 3 2 2 3 2 2 3 4 3 2 2 2 3 3 3 3 3 3 3 3 4 4 4 3 4 4
2 2 1 1 1 1 2 2 2 2 2 2 3 3 3 2 2 2 2 2 3 4 3 3 5 5 3 2 2 2 3 3 3 3 3 3 3 3 3 3 4 4 4 4
1 1 1 1 1 1 2 2 2 1 1 2 2 2 1 1 2 2 2 3 4 4 3 4 5 5 3 2 2 3 3 3 3 3 3 3 3 3 3 3 4 4 4 4
1 1 1 1 1 2 1 1 1 1 1 2 2 1 1 1 2 2 2 3 3 3 3 3 3 3 2 2 3 3 3 3 3 3 4 4 4 4 4 4 5 4 4 4
1 1 1 1 1 1 1 1 2 2 1 2 3 2 2 2 2 2 3 3 3 3 3 3 3 2 3 3 3 3 3 3 3 3 3 3 4 4 4 5 4 4 4 4
Wind_Direction
262 274 262 249 244 231 225 229 237 253 257 264 250 237 218 194 180 173 180 179 179 178 164 133 95 49 29 2 352 352 351 345 337 337 341 348 344 336 346 10 4 332 330 326
268 265 266 264 251 239 239 240 247 259 264 263 278 274 237 193 186 196 196 191 184 175 166 157 148 94 13 342 340 344 340 340 351 349 352 353 343 342 9 19 12 8 331 311
260 278 305 262 236 226 229 224 226 244 255 275 277 244 210 212 207 204 197 189 189 187 179 170 185 189 260 324 339 342 341 343 349 353 349 345 343 352 1 6 4 335 317 286
253 259 245 247 208 213 227 237 232 246 264 264 259 244 194 185 182 197 205 196 184 162 161 154 148 107 45 354 340 335 333 336 346 352 346 342 341 346 352 353 335 314 306 293
218 241 264 266 231 210 221 250 235 242 261 268 309 320 276 304 138 193 201 187 164 147 143 136 148 143 151 311 322 325 322 328 337 338 334 334 332 331 328 332 327 324 323 325
219 232 246 252 195 206 204 257 242 224 252 254 190 245 256 205 125 124 115 122 121 114 110 139 176 177 201 236 261 285 300 307 319 321 313 314 314 313 318 308 299 317 331 334
227 240 256 251 163 126 197 244 236 212 237 225 213 234 250 124 112 111 115 118 117 122 151 192 190 194 218 230 245 272 296 307 314 313 305 300 300 298 300 310 320 314 314 319
208 228 246 178 150 188 216 28 16 315 276 256 258 277 106 149 143 127 124 124 132 147 199 203 184 202 239 253 276 304 302 301 303 306 302 298 289 287 281 267 273 288 296 302
205 219 213 138 169 193 65 295 304 306 307 287 273 254 261 254 198 183 177 170 157 183 244 256 230 220 247 276 317 322 308 294 298 301 299 289 274 269 269 254 242 250 250 262
243 249 231 205 227 250 288 275 304 301 288 263 254 243 243 241 249 245 225 206 192 201 248 264 271 274 273 304 325 287 272 281 285 285 292 294 282 262 245 239 237 238 238 246
247 261 270 242 238 263 285 305 319 320 307 275 248 254 256 255 258 256 259 247 221 221 241 259 275 279 290 298 271 254 266 273 277 274 269 271 272 256 247 246 236 237 240 232
235 228 218 243 247 296 293 303 303 309 309 308 275 253 267 265 268 269 266 267 245 245 252 263 263 263 270 263 235 229 250 258 261 262 261 255 263 278 268 262 263 261 261 259
247 277 244 256 350 45 267 306 311 296 283 292 295 273 267 272 278 276 270 258 243 243 248 252 251 255 253 241 231 230 240 249 252 252 252 249 248 250 272 285 273 269 268 270
278 295 240 240 277 344 334 314 324 314 300 293 294 299 273 273 277 268 266 264 258 254 253 249 250 256 253 238 228 235 244 247 245 246 247 244 242 243 244 251 269 279 274 268
276 230 219 292 24 15 11 14 359 325 323 323 320 291 262 261 268 275 279 274 264 256 253 247 252 260 253 232 229 235 240 246 244 247 247 246 244 241 241 242 247 262 280 277
259 216 194 240 259 299 331 322 285 291 300 302 303 295 279 267 271 280 282 260 248 259 259 254 258 262 247 232 236 241 241 248 249 247 246 243 239 234 237 238 242 248 255 256
189 229 242 254 261 270 267 262 260 274 286 288 288 290 285 278 279 278 278 269 259 263 263 259 262 263 238 225 231 241 242 246 245 247 240 236 233 231 234 235 240 247 255 251
220 231 232 237 250 262 271 272 270 277 277 283 295 295 281 268 269 276 281 287 291 289 278 266 260 252 236 228 229 238 238 239 240 245 248 241 238 235 232 232 235 244 254 257
245 240 250 259 258 255 264 269 272 274 279 283 285 281 276 270 268 271 278 282 282 286 288 274 270 261 244 242 239 233 235 240 246 249 249 248 246 240 235 235 238 242 246 249
280 272 260 272 281 258 262 278 287 289 286 279 278 282 285 284 277 272 268 264 258 261 273 276 272 262 254 251 250 242 240 242 246 250 249 246 247 246 239 237 239 242 243 244
255 260 262 274 285 284 268 267 267 275 284 270 255 264 276 287 287 274 271 283 292 283 282 271 265 266 260 258 245 241 241 244 247 247 247 250 254 257 253 247 245 247 247 245
289 281 271 269 276 291 293 271 255 263 276 276 267 266 278 286 285 274 254 257 285 298 293 280 276 278 275 268 256 253 252 252 253 253 253 254 256 259 262 260 256 254 253 249
290 278 271 269 272 287 306 293 268 259 261 264 265 268 269 275 280 279 290 292 301 305 306 289 292 294 288 275 266 260 257 257 257 256 256 256 256 258 261 264 264 261 260 257
309 308 306 297 278 286 298 300 289 273 264 266 261 256 258 280 292 271 268 289 300 307 309 301 300 301 295 281 273 268 264 263 263 263 261 260 259 262 264 266 268 267 264 262
303 300 296 296 286 279 286 310 318 309 301 294 292 281 260 252 264 290 306 304 308 312 306 305 309 309 302 283 274 271 270 268 269 269 267 267 266 265 265 265 264 266 265 264
292 284 279 277 280 290 296 303 301 303 315 318 320 323 324 317 303 302 305 304 303 304 304 303 300 295 287 281 275 273 272 274 273 268 267 268 268 268 269 269 269 267 267 266
304 296 302 310 309 304 307 302 291 293 296 297 304 313 323 321 316 312 310 308 308 307 305 303 300 295 291 287 284 280 276 274 271 271 271 270 270 271 274 275 274 272 270 268